Theta_e
302 302 302 302 302 302 302 303 303 303 303 303 304 304 305 305 305 306 305 305 306 309 314 317 318 318 319 318 318 318 317 317 315 314 314 319 320 318 318 318 320 320 319 317 316 324 328 322 324 331 333 336 340 344 349 350 349 349 354 358 354 355 352 349 349 351 350 348 352 352 347 348 349 349 350 350 351 349 351 351 352 352 352 352 352 353 353 354
302 302 302 302 302 302 303 303 303 303 303 303 303 304 304 305 305 306 306 305 305 306 309 314 317 318 318 318 318 318 318 318 317 315 316 319 319 318 319 317 318 319 318 319 316 323 332 329 328 333 334 337 340 344 346 347 348 346 352 355 352 354 352 348 349 349 348 347 350 350 346 346 346 347 349 349 350 349 350 349 351 353 353 353 352 353 353 353
302 303 303 303 303 303 303 303 303 303 303 303 303 304 304 304 305 305 306 306 306 306 307 311 316 317 318 317 317 318 317 317 316 316 318 318 318 319 319 319 318 319 318 319 317 319 329 332 331 334 335 338 341 345 345 345 346 345 348 351 352 354 350 349 348 348 348 347 348 347 347 346 346 347 348 348 347 349 351 350 352 353 353 352 352 353 352 352
302 303 303 303 303 303 303 303 303 303 304 304 304 304 304 304 304 305 306 306 306 306 306 308 314 317 317 317 317 317 317 318 319 320 323 321 319 319 320 320 318 319 318 318 318 318 326 330 332 334 336 338 342 345 345 344 343 345 346 346 352 353 350 348 346 346 346 346 348 348 348 347 345 347 348 348 349 350 351 351 352 353 353 352 351 351 351 352
302 303 303 303 303 303 303 304 304 304 304 304 304 304 304 304 305 305 305 306 307 307 306 308 313 317 317 316 316 316 317 322 324 324 325 324 321 319 320 319 318 318 319 318 319 321 325 327 331 333 336 337 342 345 344 344 342 344 345 344 349 350 349 349 345 346 347 346 347 347 348 347 346 348 347 348 352 351 350 352 353 353 354 352 351 351 351 352
302 303 303 303 303 303 303 304 304 304 304 304 304 304 305 304 305 305 305 305 307 307 308 310 314 317 317 316 315 315 318 324 327 325 324 325 324 321 320 319 319 318 317 317 318 323 325 326 329 333 336 338 341 343 344 344 342 343 345 344 347 348 350 349 345 347 347 347 348 347 348 346 346 347 347 347 349 349 348 352 353 353 353 352 352 350 351 351
303 303 303 303 303 303 304 304 304 304 304 304 304 304 305 305 305 305 304 305 306 307 309 312 315 316 316 316 315 315 315 320 324 326 324 323 323 321 322 320 318 318 318 317 318 323 325 326 329 333 337 339 341 344 343 343 341 343 344 344 346 347 348 347 345 346 346 347 347 347 347 343 346 348 346 346 347 348 349 353 353 352 353 352 352 351 351 352
302 303 303 303 303 303 304 304 304 304 304 304 304 304 305 305 305 305 305 305 306 306 309 313 315 315 316 315 315 317 317 321 323 323 321 321 320 320 322 322 321 319 318 318 318 322 325 327 331 335 337 339 341 342 343 342 340 342 343 343 344 346 349 348 346 346 346 346 346 347 345 344 346 347 345 345 346 348 351 353 353 353 353 353 353 352 352 352
303 303 303 303 303 303 303 304 304 304 304 305 305 304 305 304 305 305 305 305 305 307 309 313 314 314 315 315 316 319 323 322 322 322 320 319 319 319 320 322 323 321 320 319 318 322 324 327 332 336 338 340 342 343 342 340 339 342 342 342 342 343 348 347 346 346 346 347 347 347 345 344 344 343 344 346 347 347 351 353 353 353 353 353 353 353 353 352
303 303 303 303 303 303 304 304 304 304 304 305 305 305 305 304 305 305 305 305 305 306 308 312 314 315 316 316 316 321 325 322 323 322 321 319 319 320 319 320 322 322 322 320 318 321 323 326 333 337 337 339 341 342 341 338 338 340 342 341 342 341 345 347 345 344 346 346 347 347 345 342 344 343 344 346 348 348 350 352 352 353 352 352 353 353 353 352
303 303 303 303 303 303 304 304 304 304 304 305 305 304 305 305 305 305 305 305 305 306 308 310 313 315 316 317 316 322 324 322 325 323 322 322 321 320 319 320 321 321 320 320 318 321 324 327 333 336 335 336 337 339 340 338 337 337 339 340 341 341 341 343 344 344 346 346 347 347 345 343 343 343 344 347 348 348 349 351 351 352 352 352 352 352 353 353
303 303 303 303 303 303 303 304 304 304 305 305 305 305 305 305 306 307 307 307 306 307 308 310 313 314 316 316 317 323 325 324 325 325 324 324 323 322 321 320 321 322 320 320 319 320 324 326 332 335 334 335 335 336 338 338 337 335 337 338 339 341 340 341 343 344 345 346 347 346 344 343 343 341 343 347 346 348 348 349 351 351 351 351 351 351 352 352
303 303 303 303 303 303 304 304 304 304 305 305 305 305 306 306 307 309 310 310 309 309 309 310 313 313 317 318 320 321 324 324 323 324 325 325 325 324 322 320 322 324 321 319 320 322 325 327 331 333 333 333 334 336 337 337 337 336 336 337 339 341 341 342 341 342 344 344 345 345 340 341 344 342 344 347 346 347 348 348 351 352 351 350 351 351 351 352
303 303 303 303 303 303 304 304 304 304 305 305 305 306 308 309 310 311 312 313 312 312 310 311 314 315 318 320 316 316 322 323 324 324 324 325 325 326 324 323 323 326 324 320 323 326 328 328 330 332 331 331 332 335 335 335 335 337 337 337 339 337 338 342 341 342 343 342 344 343 338 340 343 341 344 346 346 347 347 347 349 350 351 349 351 351 351 352
303 303 303 303 303 303 303 304 304 304 304 305 306 308 311 313 313 312 313 313 314 316 312 312 315 318 321 323 313 318 323 323 325 322 325 325 325 326 325 324 324 327 327 324 326 328 330 331 331 331 330 330 330 332 334 334 335 336 334 333 337 336 337 343 341 342 343 342 343 342 338 341 342 339 344 346 346 347 347 347 348 349 350 349 350 351 351 351
303 303 303 303 304 303 304 304 304 304 304 306 308 310 313 314 312 311 313 316 319 320 314 314 319 321 324 326 318 323 326 324 325 322 324 324 325 327 325 325 325 326 327 326 327 327 329 330 330 330 329 328 329 331 333 333 332 336 334 329 333 335 336 340 341 341 341 342 342 342 340 341 341 340 344 346 347 347 347 346 346 348 349 348 351 352 351 351
303 303 303 303 304 303 303 304 304 304 305 309 311 311 312 312 310 313 319 321 324 323 316 318 325 324 325 326 322 324 325 326 326 323 324 324 324 326 327 325 325 325 326 327 328 327 329 331 331 329 328 327 328 331 330 327 326 332 333 330 331 335 335 335 338 340 340 341 341 342 342 342 340 341 346 347 346 347 347 347 347 348 348 348 351 351 350 351
303 303 303 303 304 304 304 304 304 305 307 312 313 311 312 311 310 318 321 319 323 326 322 322 326 326 326 325 325 325 324 327 327 326 324 323 324 324 326 326 325 325 326 327 328 328 328 329 330 329 328 327 328 329 326 325 327 328 329 328 328 332 333 334 336 339 339 340 341 342 341 342 340 341 346 348 347 347 349 349 349 347 347 347 350 351 351 351
303 303 303 303 304 304 304 304 304 305 309 314 314 312 312 310 310 319 320 314 317 322 323 324 326 327 324 324 325 324 326 328 326 327 324 323 324 323 325 328 326 326 325 326 327 327 329 330 330 328 327 327 327 328 327 328 331 331 331 329 328 328 330 335 337 338 338 338 340 340 340 341 341 339 342 346 347 348 347 348 348 347 347 348 350 351 351 351
303 303 304 304 304 304 304 304 305 306 309 313 315 313 311 309 309 315 316 310 311 313 313 315 317 319 318 321 323 323 326 328 325 326 325 323 323 323 324 328 329 328 327 327 327 328 329 329 330 329 328 327 327 328 328 330 332 333 333 331 329 328 329 335 337 338 337 337 338 341 340 341 341 339 340 343 345 347 346 346 347 347 348 349 351 352 352 353
303 303 304 303 304 305 304 305 306 306 309 312 314 313 310 308 308 309 310 309 310 311 311 311 311 312 313 316 323 322 320 322 324 324 325 323 323 322 324 328 331 329 328 327 328 329 329 329 329 329 330 329 328 328 328 329 330 331 331 330 329 329 330 334 336 336 337 337 338 340 341 340 341 340 339 344 345 345 346 346 346 348 350 351 352 353 352 353
303 303 304 303 303 305 304 305 307 306 308 313 314 312 309 308 308 308 309 310 311 311 311 312 311 312 312 312 320 321 315 318 320 322 325 324 321 322 325 329 330 330 329 329 330 329 328 327 328 330 330 329 329 329 327 327 329 329 330 328 326 328 331 333 335 336 336 336 337 340 340 339 341 339 340 345 346 345 346 346 346 348 350 351 351 353 353 353
303 303 303 304 303 304 304 305 307 307 309 314 314 310 308 308 308 309 310 310 311 311 312 312 312 313 312 310 315 318 315 317 318 321 324 323 321 323 325 327 328 329 330 330 331 328 326 327 329 329 330 331 330 330 328 327 328 329 329 327 324 328 327 327 332 336 335 337 338 339 338 338 341 340 339 345 345 345 345 347 347 348 350 351 351 351 352 352
303 303 303 303 303 304 304 304 307 309 312 314 312 309 308 308 308 309 310 310 311 312 314 314 313 314 314 312 313 313 314 316 319 321 323 322 322 322 325 326 326 329 329 330 330 328 327 328 328 328 330 331 330 331 330 328 326 328 329 328 326 328 327 326 331 336 334 335 338 338 333 334 340 340 339 340 344 345 346 347 348 348 350 351 351 350 351 352
303 303 303 303 303 303 303 305 307 311 314 313 310 309 308 308 308 309 309 311 312 315 317 316 315 315 315 314 314 313 314 317 318 321 323 323 323 322 324 325 326 328 329 330 330 329 329 329 329 329 329 331 330 330 330 328 326 326 329 330 328 329 329 329 332 332 329 328 336 335 326 329 340 340 340 339 339 344 346 347 347 349 352 351 351 351 351 352
303 303 303 303 303 303 303 305 308 311 313 312 310 309 308 307 309 309 309 312 314 319 320 319 318 317 317 316 316 316 315 317 320 322 323 323 323 322 323 324 326 328 329 330 330 329 329 329 329 328 328 329 330 329 329 330 326 323 328 331 330 331 330 330 330 327 324 326 335 335 328 329 336 337 342 341 339 344 345 346 348 348 351 351 351 351 351 352
303 303 302 303 303 303 303 305 309 312 312 311 310 309 308 307 308 309 311 316 320 322 321 320 319 318 317 318 317 315 314 316 320 321 323 323 323 322 322 323 325 326 329 329 328 328 330 330 329 329 328 329 329 328 330 331 325 323 328 329 329 329 328 330 328 324 325 329 333 333 332 330 329 334 343 343 340 344 346 347 349 349 351 351 352 352 351 353
303 302 302 302 303 305 305 305 310 313 311 310 309 308 307 307 309 310 314 318 322 320 320 319 319 317 317 319 317 315 316 318 320 321 323 324 323 322 321 322 324 326 329 328 325 328 330 330 329 328 327 326 328 328 329 330 327 326 329 329 328 329 329 331 328 325 326 326 326 329 330 327 327 336 343 342 340 341 345 348 350 351 352 351 351 351 352 354
302 303 302 302 304 306 306 307 311 312 310 308 308 307 308 309 310 311 315 320 320 317 319 318 318 317 316 319 318 316 317 319 321 322 323 324 324 323 322 322 324 325 326 326 326 328 329 329 329 327 326 326 328 328 329 328 327 327 329 330 330 330 330 330 327 324 325 323 321 325 326 324 326 333 338 337 337 338 343 347 349 352 351 352 351 351 352 353
303 302 302 304 307 306 306 308 310 310 308 308 307 308 309 310 310 312 316 321 317 314 316 315 315 315 315 317 318 317 316 317 321 322 323 324 324 324 322 322 323 324 324 326 325 327 328 328 328 327 326 327 328 328 327 327 327 328 328 330 329 329 330 330 328 325 322 320 320 323 323 323 324 329 334 335 335 338 340 343 348 351 350 351 352 351 352 352
303 302 303 306 309 308 308 309 308 309 309 307 307 308 309 310 312 313 315 318 313 312 313 313 312 312 313 315 317 319 318 317 319 321 323 324 324 325 324 323 322 322 322 322 323 325 327 327 328 328 327 328 329 328 329 328 327 328 330 328 324 325 325 324 324 323 319 318 320 323 323 320 320 327 334 336 337 339 336 341 348 350 350 351 351 351 352 351
303 304 306 309 310 309 310 309 308 309 308 307 307 308 309 311 312 312 313 313 312 311 311 311 311 311 312 314 316 319 321 319 318 319 322 323 324 325 324 322 321 319 317 318 320 322 324 325 327 328 328 327 327 327 328 328 329 329 328 325 321 320 320 319 320 319 317 317 320 323 323 319 320 330 337 338 340 340 336 339 347 350 350 350 350 352 351 352
303 305 309 311 311 311 310 309 308 308 307 307 308 308 309 311 312 312 311 310 310 310 310 310 310 311 312 313 315 318 320 320 319 320 320 322 325 326 324 324 323 320 318 318 318 318 321 325 326 326 327 328 327 326 323 324 327 328 325 322 319 319 318 318 319 317 317 318 320 322 323 318 319 328 338 340 337 338 335 337 346 350 350 350 350 350 351 352
304 305 310 312 311 311 310 309 309 307 307 307 308 308 310 311 312 311 310 309 310 311 310 309 310 311 312 314 316 316 315 316 318 319 320 321 323 324 325 325 323 323 322 319 318 317 318 321 324 325 327 328 328 326 326 327 326 327 327 324 321 319 318 318 318 317 318 320 319 320 319 316 318 326 336 339 334 334 333 335 345 349 349 349 351 350 351 353
305 305 310 312 312 313 311 310 309 307 307 308 309 310 310 311 311 310 310 309 309 310 309 310 310 310 312 314 314 313 313 313 315 316 318 321 321 323 325 325 324 325 323 319 319 319 318 320 326 327 327 328 328 327 329 328 324 325 328 325 321 322 322 320 320 320 321 321 321 319 318 321 326 331 337 336 332 334 332 332 342 348 350 350 351 352 351 353
307 305 309 312 312 313 311 308 308 308 309 309 310 310 310 310 311 310 310 309 309 309 308 309 310 310 311 311 311 311 312 312 314 315 316 318 321 324 326 326 325 326 324 321 320 320 317 320 327 328 328 328 329 328 330 327 324 325 324 321 323 328 326 320 321 322 319 320 322 320 319 323 325 328 332 334 333 334 332 331 338 345 349 350 350 352 352 351
307 307 311 312 311 312 310 308 308 309 310 310 311 311 310 311 310 309 309 309 309 308 308 309 310 310 310 310 309 310 310 311 314 315 316 316 320 323 324 326 326 326 326 324 323 324 321 320 327 329 326 328 329 329 329 329 328 324 320 322 327 328 325 322 321 322 320 319 320 319 318 320 320 323 329 331 330 332 331 331 334 340 346 348 348 350 350 350
309 310 313 312 310 311 309 308 308 310 310 310 312 312 310 310 309 309 309 309 308 308 308 308 309 309 309 309 309 309 310 312 313 314 315 315 318 319 320 322 323 322 324 324 324 326 323 319 324 329 328 328 329 328 327 329 330 327 324 327 327 321 320 321 320 320 321 320 318 318 318 319 319 322 327 328 328 330 332 331 330 336 344 346 346 349 349 349
310 312 314 312 310 309 308 308 309 309 310 311 311 310 309 309 309 309 309 308 308 308 308 308 308 308 309 309 309 309 310 312 312 313 314 315 316 317 318 318 318 317 318 321 322 326 326 322 322 328 330 327 328 326 323 324 328 329 328 327 326 322 320 322 320 320 322 322 321 321 319 321 327 328 326 328 329 329 333 335 331 335 344 346 346 348 348 348
310 313 315 312 310 309 308 308 309 310 311 311 310 309 308 308 308 308 308 308 308 308 307 308 308 308 309 308 309 310 310 311 311 311 313 314 315 317 318 316 316 316 317 318 321 325 327 325 320 327 330 325 324 326 324 325 326 326 325 323 323 323 324 323 321 320 321 322 324 324 322 325 335 335 329 329 331 331 334 339 337 334 341 346 346 347 348 348
310 312 314 312 310 310 310 308 309 310 310 310 309 308 308 309 308 308 309 308 308 308 308 308 308 308 309 309 309 309 310 310 310 310 311 313 315 316 317 316 315 316 316 318 322 324 327 327 322 322 325 322 323 328 329 328 327 327 324 322 321 322 321 320 320 320 319 320 323 324 323 332 343 336 333 331 331 333 331 338 341 337 340 347 346 346 349 348
309 310 311 311 311 310 309 308 309 310 310 309 309 309 309 309 308 308 308 308 308 309 308 308 308 308 308 308 309 309 310 310 310 310 311 313 314 315 315 316 315 316 316 317 321 323 326 329 325 321 323 324 326 329 329 329 330 329 327 326 326 323 320 317 319 322 319 318 321 320 321 335 350 343 337 333 332 333 330 335 339 336 339 348 346 344 348 348
309 309 310 310 310 310 308 309 310 310 309 309 309 309 309 309 308 308 308 309 308 308 308 308 308 308 308 308 309 309 309 310 310 310 312 314 314 314 314 315 314 314 315 317 320 323 325 328 327 324 326 328 330 330 329 330 330 328 327 328 326 325 323 322 326 328 321 318 321 319 319 333 349 345 339 336 334 333 330 332 335 333 339 347 346 343 347 348
309 309 311 310 309 309 308 309 309 308 308 309 308 308 309 309 308 308 308 308 308 308 308 308 308 308 308 308 309 309 309 310 310 311 313 313 313 313 314 314 314 314 314 317 321 322 323 327 330 330 328 325 327 328 326 328 329 327 328 328 327 328 327 325 328 330 324 320 321 320 321 332 350 352 344 339 337 334 332 333 331 330 340 347 347 343 345 347
308 309 310 310 309 309 308 309 309 308 308 308 307 308 308 309 309 308 308 308 309 308 308 308 308 308 308 308 309 309 309 310 310 311 313 313 312 313 313 313 313 313 314 318 321 320 320 324 329 333 330 325 325 326 324 324 327 328 329 327 327 328 325 325 325 324 325 327 324 322 324 332 343 349 344 340 339 336 333 335 335 334 338 345 346 345 345 346
308 308 310 310 309 309 309 309 309 308 308 308 307 307 307 308 309 309 308 308 309 309 308 308 309 308 308 308 308 308 309 309 310 312 313 313 312 312 312 312 312 312 314 319 318 317 319 324 327 332 333 330 329 332 332 328 325 324 326 327 327 327 326 327 323 322 331 334 327 330 337 333 333 340 340 339 338 337 336 343 346 344 342 344 345 346 345 345
307 307 309 309 309 309 309 309 309 309 309 308 308 308 308 308 309 308 308 308 309 309 308 308 309 308 308 308 308 308 308 309 310 310 311 312 311 311 311 312 312 313 315 317 316 315 318 323 326 329 331 331 331 333 334 330 325 324 324 326 327 327 327 326 322 326 340 333 325 339 347 335 333 340 343 342 341 340 343 346 347 347 347 347 345 346 347 344
306 306 307 308 308 309 308 309 309 309 308 308 308 308 308 308 308 308 308 308 308 309 308 309 309 308 308 308 308 308 309 309 309 310 310 311 311 311 311 312 312 313 314 314 314 314 315 321 324 324 326 328 330 331 331 332 330 328 327 326 327 327 325 324 324 331 340 334 334 349 351 338 338 340 341 344 345 342 343 343 345 347 349 349 345 346 347 344
306 306 307 307 307 308 308 308 309 309 308 309 309 308 308 308 308 308 308 308 308 308 309 308 308 308 308 308 308 309 309 309 310 310 310 310 310 311 311 312 313 313 312 312 313 313 314 320 323 321 323 327 329 331 331 332 331 331 330 328 328 328 325 324 327 331 337 337 343 355 350 340 337 336 337 340 340 339 339 339 341 343 346 348 348 346 347 349
305 306 306 306 306 307 308 309 309 309 309 309 309 308 308 308 308 308 308 308 308 308 308 308 308 308 308 308 309 308 309 309 310 310 310 310 311 311 311 311 312 312 310 311 313 313 314 318 320 320 323 327 329 331 331 330 331 330 330 331 330 328 326 325 326 329 334 334 336 346 346 341 337 337 339 339 335 337 339 337 337 339 344 346 347 347 351 355
306 306 306 306 306 307 308 308 309 309 309 308 308 308 308 308 308 308 308 308 308 309 308 307 308 308 308 308 308 308 308 309 309 309 309 310 310 311 311 311 310 310 310 311 312 313 313 315 316 319 324 326 327 329 330 330 330 328 329 331 332 328 326 326 326 327 334 335 334 338 341 343 343 340 341 341 338 339 341 338 334 336 337 338 341 344 347 350
306 306 305 305 306 307 307 307 308 309 309 309 308 309 309 308 309 308 308 308 308 308 308 308 308 308 308 308 308 308 309 309 308 308 309 309 309 309 310 310 310 309 309 310 311 312 312 314 315 318 323 326 325 327 329 328 328 328 329 331 333 332 330 327 326 329 334 335 335 338 343 349 347 339 337 338 339 340 341 337 334 334 333 333 336 338 340 343
Wind_Speed
22 22 23 23 23 23 23 23 24 24 24 24 25 25 25 24 24 22 22 22 21 20 19 19 18 16 15 16 18 18 18 20 19 21 27 25 18 15 16 16 13 11 13 18 18 13 11 14 18 18 18 20 21 22 20 18 17 11 5 3 4 4 4 5 2 2 1 2 3 6 6 6 11 18 22 22 18 22 19 20 25 21 28 32 31 39 40 38
23 23 23 24 24 24 24 24 24 24 24 25 25 26 26 25 25 23 22 21 21 20 18 18 18 16 15 14 16 17 18 19 21 28 30 22 17 13 11 14 16 16 14 17 21 19 16 16 18 19 20 20 20 21 19 18 18 11 3 3 5 4 4 6 2 1 2 6 2 1 6 8 9 18 23 18 14 17 10 14 26 28 29 33 37 40 38 39
24 24 24 24 24 25 25 25 25 25 25 25 26 26 27 26 25 24 23 21 21 20 18 17 17 16 14 14 14 15 16 17 23 29 24 19 23 21 14 13 14 18 19 16 18 21 20 17 16 19 21 18 19 21 18 16 16 13 7 3 5 5 5 7 5 3 4 3 1 4 8 7 10 17 15 14 15 13 9 15 25 30 34 37 40 40 39 39
24 25 25 25 25 25 25 25 26 26 26 26 26 27 28 27 25 24 23 21 21 21 19 17 16 16 14 13 13 12 13 15 17 16 10 9 18 23 19 16 15 18 22 16 15 19 19 17 17 20 20 15 18 21 16 16 14 11 10 6 5 7 5 6 5 5 4 2 5 7 9 6 13 17 14 15 13 10 11 20 27 33 39 40 40 41 41 39
25 25 25 25 25 25 25 26 26 26 26 26 27 28 28 28 26 24 22 21 21 21 19 17 16 14 13 13 12 10 7 7 4 2 4 4 7 19 21 17 17 17 20 18 15 18 19 19 19 21 18 12 14 15 14 20 18 8 11 11 8 9 6 7 9 8 8 7 8 10 11 7 18 18 20 18 8 8 16 27 35 39 41 41 41 42 40 38
26 26 26 26 26 26 26 26 26 26 26 26 27 28 28 28 26 24 22 21 20 20 18 16 15 13 12 11 12 9 5 3 4 3 3 1 3 13 21 18 16 14 15 16 17 18 20 22 21 20 15 10 11 11 14 23 21 7 8 11 13 15 8 8 13 9 9 9 10 12 14 11 15 13 20 21 13 16 21 32 39 39 40 41 41 41 39 37
26 26 26 26 26 26 27 27 27 26 26 26 27 27 28 27 26 24 21 20 19 19 17 16 13 11 11 10 12 9 13 15 11 6 5 4 3 7 19 22 19 18 17 17 18 19 21 23 22 19 13 9 10 12 16 22 21 11 6 8 13 18 12 11 14 10 11 11 13 17 14 9 10 8 15 18 21 24 25 36 39 37 39 39 39 39 38 37
27 27 27 27 27 27 27 27 27 27 27 26 27 27 27 27 26 24 21 19 18 18 17 15 12 11 9 10 10 8 18 18 7 10 4 2 2 1 13 22 23 24 24 21 21 21 21 22 23 20 11 9 12 13 17 17 15 12 8 9 10 14 15 17 16 13 13 11 14 18 10 10 13 14 12 13 24 28 30 39 38 36 38 37 38 37 37 37
28 28 28 27 27 27 27 27 27 27 27 27 26 26 27 27 26 24 21 19 18 17 16 14 12 10 8 10 7 7 16 10 3 10 8 6 5 4 9 16 21 26 27 24 23 23 22 21 23 22 12 11 14 14 18 14 8 11 13 13 12 13 17 21 18 15 14 13 12 13 10 13 14 13 12 18 27 31 34 38 37 38 38 37 37 36 37 37
29 28 28 28 27 28 27 27 27 27 27 27 27 26 26 26 25 24 21 18 17 16 15 13 11 9 9 9 6 5 8 3 3 7 9 9 9 8 10 12 16 25 28 27 26 25 24 22 21 22 16 14 14 14 17 13 9 15 19 18 16 16 17 21 19 16 14 14 16 12 9 10 15 10 8 24 31 31 35 36 36 38 36 36 37 37 38 36
29 29 28 28 27 28 28 28 28 27 27 27 27 26 25 25 24 22 20 17 16 16 14 13 11 9 10 9 12 9 6 4 4 5 10 11 11 12 14 13 12 21 29 29 28 27 26 23 20 19 15 11 12 13 17 18 18 19 18 16 18 18 16 17 16 17 15 12 21 19 10 9 16 12 12 30 33 29 33 34 36 36 34 35 34 37 38 36
30 30 29 29 28 28 28 28 28 28 28 27 26 25 23 23 22 21 19 16 16 15 14 13 10 11 10 13 23 16 6 5 3 4 11 11 11 12 14 16 13 15 25 30 29 26 24 23 23 19 13 11 10 8 12 19 22 22 17 10 12 15 12 12 13 18 17 10 19 18 7 7 8 9 22 38 34 29 32 32 34 34 33 33 32 35 36 35
30 30 30 30 29 29 28 29 28 28 29 28 27 24 22 21 21 21 19 16 15 14 14 12 11 12 9 15 28 22 11 11 9 9 15 15 13 10 10 17 15 12 18 27 26 22 22 23 24 23 19 14 9 8 12 17 19 17 14 8 6 8 7 12 14 17 16 10 16 14 4 6 7 9 27 42 36 31 31 31 32 32 32 32 31 34 34 32
30 30 30 29 30 29 29 29 28 29 29 28 27 23 20 19 19 20 19 17 17 15 14 11 10 9 10 19 29 25 18 15 15 17 20 20 19 15 11 15 18 14 14 21 22 18 20 22 23 23 22 18 13 13 13 13 12 8 7 6 4 3 4 11 15 15 12 9 17 13 3 6 10 13 28 43 42 34 31 31 32 32 32 32 32 34 35 33
30 31 30 29 30 29 29 29 29 29 28 28 27 23 19 17 18 20 19 17 17 15 12 9 8 6 10 23 27 15 9 16 22 22 21 17 19 21 17 17 19 18 16 18 19 18 19 21 22 19 17 19 16 12 8 6 6 4 4 5 4 4 5 8 12 16 13 11 20 14 4 6 10 13 30 44 44 37 31 31 31 31 32 32 33 36 35 33
32 33 32 31 30 29 28 28 28 28 28 26 25 21 15 17 21 21 18 14 13 11 8 5 5 5 7 14 15 6 7 17 24 26 23 16 16 20 19 20 20 19 19 19 18 18 19 20 21 19 15 13 10 7 5 5 5 4 5 4 4 6 5 6 8 15 17 12 16 14 6 5 9 9 32 44 42 36 30 30 30 30 32 32 34 38 34 32
33 34 33 33 31 30 28 28 28 27 25 23 22 20 15 20 25 16 11 11 11 11 6 3 3 7 12 12 10 10 12 16 19 23 26 22 19 20 19 23 24 21 21 20 19 20 20 20 17 14 13 9 5 5 5 6 6 4 5 5 6 7 6 7 9 11 17 14 13 16 9 7 9 7 32 42 40 35 28 28 29 29 32 33 34 37 34 33
34 35 34 33 31 31 29 27 26 24 24 21 21 21 16 22 25 9 9 17 15 13 5 3 2 4 11 12 13 12 8 11 15 19 26 26 23 23 22 22 24 23 22 19 21 22 19 17 12 7 7 8 7 8 8 7 7 6 5 5 6 8 7 9 9 9 15 17 14 16 12 10 11 7 30 40 40 34 28 29 30 28 31 32 34 36 34 35
35 35 35 34 32 31 29 27 23 21 23 20 20 21 15 22 22 5 8 18 14 10 7 6 7 6 11 17 20 17 12 13 15 17 23 25 25 26 24 21 23 25 20 13 15 20 16 10 9 7 7 10 10 10 10 7 8 11 10 7 7 8 8 9 12 11 13 16 13 13 13 11 12 7 22 35 40 35 29 29 29 28 30 32 34 35 34 34
35 36 36 35 34 31 29 26 21 20 21 21 24 23 19 24 17 3 11 23 21 18 20 21 21 23 27 34 31 21 17 16 14 18 22 23 25 27 26 22 22 22 16 9 10 18 15 7 8 11 10 12 13 13 12 9 11 14 12 9 9 10 8 10 14 13 10 13 11 11 12 13 13 9 14 26 35 32 27 26 24 26 30 32 34 34 34 33
36 37 36 36 34 32 30 24 20 19 18 21 26 22 20 23 14 10 25 31 25 22 27 31 31 33 36 41 37 25 21 18 13 14 21 25 26 23 23 22 16 12 13 11 10 14 14 9 11 14 12 12 13 14 13 13 14 14 12 9 7 9 9 12 15 13 10 10 11 13 13 13 12 9 11 21 26 25 27 26 25 29 31 33 35 35 36 34
36 36 36 35 34 33 30 24 19 18 17 19 23 20 19 21 16 19 27 25 26 29 30 35 36 38 40 40 39 32 22 18 20 18 18 27 28 20 18 18 12 8 11 12 10 9 10 12 16 14 11 12 13 13 15 16 15 12 10 8 7 6 7 11 14 13 9 8 9 14 13 11 13 11 11 20 21 24 36 37 33 35 33 33 34 35 37 35
35 35 34 34 33 32 30 24 18 18 16 17 20 20 21 23 21 23 24 18 27 37 35 38 39 40 40 36 37 33 20 16 20 22 20 27 29 25 18 14 12 11 12 13 11 9 9 13 14 13 11 14 14 14 15 14 12 10 9 7 8 9 8 7 10 12 9 6 8 13 11 8 11 11 9 19 24 26 38 43 40 40 38 37 38 38 39 37
34 34 33 32 31 31 29 23 18 16 15 15 18 20 24 26 23 25 25 15 16 29 32 33 35 38 38 33 31 30 24 20 20 20 22 28 28 25 19 13 13 12 12 16 16 14 11 9 12 14 14 15 15 15 14 11 9 11 12 10 8 11 13 10 8 11 10 7 9 11 8 6 9 11 9 14 21 23 30 36 35 38 42 41 40 40 42 41
32 32 32 32 30 31 28 20 16 15 12 14 19 24 27 27 24 26 23 11 8 16 19 15 20 26 30 28 25 22 20 23 28 25 22 30 30 20 16 15 13 11 13 18 17 15 14 10 15 17 16 16 16 14 15 12 8 10 14 14 13 12 14 15 13 9 6 6 9 11 6 4 7 12 10 10 13 16 24 26 28 35 38 39 39 38 40 41
31 30 31 30 29 31 26 17 16 17 14 16 23 28 30 27 25 26 16 5 5 8 6 0 7 6 11 20 24 19 12 17 31 34 25 28 33 22 13 12 10 11 14 14 11 8 10 12 13 16 17 18 16 13 15 14 7 7 12 15 17 15 14 16 16 9 4 4 9 13 7 3 5 9 9 11 10 12 22 22 23 32 35 36 39 39 40 40
30 29 30 29 27 27 24 18 17 18 18 22 27 30 31 26 25 24 11 3 3 3 2 3 1 6 7 11 23 16 6 7 20 34 32 26 32 28 16 10 8 10 11 9 8 7 10 15 15 15 17 15 14 12 13 15 10 6 9 14 18 17 16 16 14 9 4 3 6 12 10 4 4 7 8 11 10 9 20 22 19 27 35 38 40 41 42 43
30 29 28 27 23 20 20 19 18 19 20 24 29 30 27 24 25 19 5 2 4 3 4 5 6 12 20 6 26 19 7 13 13 26 37 29 29 29 16 12 10 9 12 10 9 8 11 17 16 15 15 11 11 12 12 15 12 7 9 13 16 17 17 15 12 8 5 4 5 7 9 6 3 7 8 11 10 7 17 24 20 23 34 38 40 43 44 45
29 27 27 24 19 17 16 15 18 21 22 25 29 28 26 25 22 10 1 4 5 8 12 12 14 19 31 16 22 23 14 12 8 19 37 31 29 26 14 14 13 9 15 15 9 8 9 16 18 15 12 10 11 13 13 15 11 9 12 11 11 14 15 13 10 7 5 5 5 5 6 5 3 6 7 8 9 8 11 19 20 24 34 38 39 43 44 44
28 27 25 20 16 18 16 14 17 18 21 27 28 28 29 23 12 3 2 3 3 11 18 16 19 23 28 20 5 15 14 14 11 14 30 26 28 29 18 19 18 9 11 14 12 10 10 16 19 15 12 10 11 13 15 15 13 10 11 10 8 8 9 9 8 5 5 5 7 7 6 5 4 5 8 9 11 11 9 12 18 24 32 37 39 43 44 43
28 26 22 14 14 18 17 17 20 19 22 27 27 27 25 14 3 2 2 6 7 12 17 15 20 25 23 18 10 8 9 13 15 10 15 15 19 21 15 14 13 8 7 10 12 12 13 13 12 13 17 14 10 12 15 15 15 11 8 7 6 4 4 5 5 6 7 6 6 8 8 7 4 5 7 9 12 15 12 12 21 25 29 36 38 41 44 43
28 25 17 9 11 15 15 19 22 22 24 25 26 25 15 4 0 3 4 10 9 8 13 15 18 21 20 19 13 11 9 9 12 11 6 8 10 12 12 9 7 8 8 8 8 9 12 14 9 11 20 19 11 8 11 12 13 11 7 6 5 3 3 4 5 6 7 5 5 6 8 6 4 5 7 8 7 13 13 12 24 28 29 36 38 40 44 44
27 21 13 8 10 13 14 18 22 23 24 24 24 18 7 1 1 2 5 6 5 8 12 16 20 20 18 16 12 12 13 6 7 11 9 7 8 10 14 13 9 10 8 6 6 8 9 12 14 13 14 19 16 8 8 9 10 11 8 6 6 5 5 5 4 4 4 5 6 6 7 5 4 5 6 8 6 8 13 17 31 39 37 39 40 42 43 43
26 17 12 9 9 11 13 16 20 22 22 23 19 10 4 2 2 7 8 4 6 12 14 15 20 20 15 11 9 11 12 11 8 8 10 8 8 8 12 16 16 11 5 5 6 8 8 8 14 16 8 14 18 11 7 8 8 11 9 7 7 6 5 4 4 3 2 3 6 8 6 4 4 4 5 8 9 10 13 16 33 44 43 43 43 42 42 43
25 15 11 11 10 11 13 15 17 17 18 19 12 4 3 3 2 6 7 6 7 11 14 16 17 16 12 9 10 17 13 11 16 14 9 6 8 9 8 12 16 13 6 6 6 7 10 9 9 14 11 11 17 14 10 9 8 9 8 7 8 6 4 3 3 4 3 1 3 6 5 2 3 4 5 8 9 12 16 12 24 38 43 43 42 42 44 45
25 17 10 8 9 8 9 14 15 13 15 15 7 2 4 4 5 5 6 8 8 11 14 13 11 10 11 9 11 18 18 13 16 13 8 9 7 10 10 10 14 16 11 6 5 5 8 8 7 13 17 15 16 15 13 11 6 6 9 9 6 6 5 3 2 3 3 2 3 4 5 3 4 7 5 8 10 13 17 13 15 31 41 42 40 42 43 42
26 21 12 6 6 5 8 14 13 12 15 12 5 3 4 4 7 7 7 9 9 12 11 8 7 8 10 10 9 16 18 14 14 11 8 12 8 3 4 6 9 12 17 13 8 7 6 6 8 13 18 19 18 17 15 13 8 6 9 9 5 5 6 4 2 3 4 5 4 7 9 7 6 6 6 10 12 13 18 16 11 21 32 33 34 40 43 43
27 26 14 5 4 4 11 14 10 12 14 9 4 5 4 3 8 9 9 11 10 10 8 5 6 7 9 11 10 14 16 11 11 11 9 8 6 12 14 6 8 13 14 15 10 9 8 5 8 14 18 18 17 15 12 15 16 9 7 9 7 5 7 5 3 4 5 5 4 8 12 9 7 7 9 14 16 13 15 17 15 15 23 29 33 38 42 44
27 25 12 5 8 8 15 16 13 14 11 5 3 4 4 5 9 12 13 12 8 7 8 7 6 7 8 10 11 11 11 10 11 10 8 7 8 14 17 13 17 28 29 24 11 9 10 5 5 12 17 16 11 11 10 12 15 11 7 9 8 5 5 5 4 2 3 4 4 6 8 7 6 9 14 17 17 14 12 14 16 14 22 32 35 38 42 42
27 19 10 9 18 18 23 21 15 11 6 4 4 3 5 7 10 14 16 15 7 4 6 8 8 8 7 10 11 8 8 9 11 9 7 9 12 14 14 17 18 25 31 27 14 7 8 7 6 9 12 14 10 10 12 13 12 11 8 8 8 6 4 4 4 3 3 3 3 4 4 5 5 7 14 17 15 15 12 10 12 13 23 36 39 41 45 44
26 14 12 16 23 23 26 20 11 6 3 4 4 4 6 8 10 12 15 17 11 5 7 8 8 8 7 8 8 7 8 8 9 8 6 8 10 8 13 21 21 22 24 21 13 9 5 5 7 9 7 9 12 13 14 15 13 11 8 6 9 8 6 6 6 5 5 3 3 3 4 5 6 4 10 16 14 14 13 10 8 10 24 37 40 42 46 45
20 12 14 20 27 25 21 12 8 6 2 3 6 8 10 11 10 9 10 14 11 8 8 7 7 8 7 7 8 8 8 7 9 8 6 10 9 7 17 29 29 23 18 13 12 14 10 4 7 9 7 8 11 14 16 17 15 12 9 7 8 9 8 6 5 6 6 5 5 3 3 5 6 5 8 15 13 12 13 13 8 9 25 39 39 39 43 45
16 19 20 20 27 25 15 5 6 6 4 7 10 11 12 12 10 8 8 9 7 7 8 7 7 9 8 8 9 10 9 7 8 9 10 12 10 12 22 29 28 23 15 9 11 16 14 4 4 7 7 9 11 13 17 18 15 12 11 9 7 9 9 7 4 6 6 5 6 3 3 5 7 7 3 10 10 12 14 15 11 9 24 39 40 38 40 44
18 23 22 20 24 22 11 5 5 5 6 9 9 11 13 11 10 9 8 7 7 6 6 7 8 9 9 10 9 10 10 6 6 10 11 9 11 19 25 27 25 18 12 11 12 14 12 5 3 4 4 6 7 8 13 15 14 9 10 12 11 10 12 9 4 4 5 7 8 4 3 5 6 7 7 8 9 13 13 17 17 13 24 37 40 42 43 44
18 14 15 22 26 20 11 10 10 7 8 12 11 11 12 10 11 12 9 9 9 7 6 7 10 10 9 10 9 9 8 6 5 8 8 8 12 18 22 26 26 19 17 24 24 16 9 6 4 4 3 4 3 3 6 11 11 7 9 15 15 14 13 10 5 3 4 7 9 6 4 6 5 5 7 9 9 9 7 11 13 12 23 34 37 41 44 44
15 8 8 18 24 19 14 18 18 11 8 11 9 10 11 9 10 12 10 7 8 9 9 8 10 10 9 9 9 9 8 7 6 6 7 9 9 12 21 27 26 24 24 29 30 17 6 6 7 6 5 6 6 5 5 9 13 11 11 14 17 17 13 9 7 5 4 6 6 6 6 5 3 2 4 6 7 6 4 7 7 8 18 28 34 37 40 43
10 7 8 12 14 13 13 17 19 13 11 12 7 8 12 12 10 9 8 7 6 6 6 6 8 9 8 10 10 9 9 8 6 7 8 9 8 13 24 27 22 23 24 24 25 17 5 5 8 8 9 10 12 14 11 8 14 17 16 14 16 20 18 11 8 8 6 6 5 7 9 8 5 4 2 3 7 7 5 7 10 12 16 24 34 38 38 40
6 8 14 13 8 7 9 13 16 15 14 13 8 8 12 11 10 9 8 9 8 5 4 4 8 9 10 11 9 8 8 6 6 7 6 8 9 11 18 22 18 16 17 17 18 13 5 6 9 11 13 14 13 14 13 9 6 12 17 16 14 19 22 17 9 9 9 7 5 7 11 10 7 6 5 6 7 6 8 14 17 18 19 20 32 40 37 33
7 8 13 13 9 9 12 15 17 15 12 11 8 8 10 10 10 9 8 9 9 6 5 5 9 11 11 11 9 8 8 5 4 6 6 8 9 7 10 15 14 14 16 13 13 12 6 6 13 16 14 14 11 10 13 11 6 1 9 17 16 16 22 20 11 9 11 9 7 8 11 10 7 6 6 6 7 11 16 19 20 21 23 23 24 30 29 25
8 7 10 13 11 12 14 14 13 11 9 9 7 7 10 12 12 10 10 12 10 6 7 10 12 13 11 10 9 8 9 7 4 5 7 9 7 4 4 6 9 15 16 10 10 12 9 8 15 16 9 8 8 7 12 13 7 4 3 9 12 12 18 20 16 10 8 9 9 8 10 7 6 7 5 3 10 16 16 16 17 20 24 26 25 24 24 26
9 8 10 11 9 9 11 11 10 7 6 6 6 7 9 11 15 13 12 14 13 8 8 11 13 13 11 9 9 10 11 10 9 9 10 10 7 5 5 6 10 14 14 10 9 11 10 9 13 12 6 6 7 6 11 13 8 7 6 4 3 4 9 17 16 10 7 10 10 7 7 5 6 7 6 8 11 11 10 11 15 18 21 24 22 21 24 28
13 12 11 10 6 6 8 9 8 6 5 5 7 9 10 12 17 16 10 10 13 13 13 14 12 11 10 9 10 12 13 14 15 14 14 15 14 11 11 13 14 12 10 10 9 8 8 9 9 9 6 7 10 11 11 9 7 5 5 2 2 3 5 12 17 12 6 9 9 6 5 6 6 9 11 11 12 11 10 12 17 21 24 25 21 16 19 25
Wind_Direction
5 3 1 359 357 354 352 351 349 347 344 340 336 333 331 330 330 331 330 327 322 316 312 308 304 301 297 296 293 291 293 289 286 276 263 261 264 254 244 241 231 212 205 209 208 199 203 199 189 187 194 207 216 224 230 231 223 196 168 205 240 253 245 283 35 137 252 76 22 86 165 208 156 159 138 130 141 148 166 166 154 148 146 146 147 150 151 153
4 2 0 359 357 354 353 351 350 349 345 343 338 334 332 329 329 329 330 329 325 319 314 310 305 301 296 293 292 293 293 293 291 275 258 253 262 252 217 223 228 216 205 204 204 193 194 204 193 192 201 210 216 221 226 226 226 220 190 194 227 238 233 269 306 183 2 51 40 236 233 235 152 140 135 136 147 153 156 146 142 135 137 143 147 151 153 155
2 0 359 357 355 352 351 349 349 348 346 344 340 338 335 332 330 327 328 327 326 323 315 311 307 301 295 291 290 292 296 301 293 281 271 256 248 242 221 215 223 216 211 204 202 193 188 202 198 195 204 213 216 216 220 220 225 224 213 221 220 219 223 245 268 303 347 56 215 239 250 259 126 130 141 142 142 144 120 126 137 134 137 144 150 155 155 157
0 359 357 355 353 351 349 347 347 346 345 343 341 339 337 336 332 328 327 324 324 325 318 312 307 301 295 289 288 291 302 307 294 289 300 271 235 228 225 221 219 211 208 202 196 192 189 201 202 199 204 215 221 218 219 214 217 209 203 234 219 202 218 213 220 275 272 239 275 271 261 244 138 136 140 140 139 134 133 137 138 138 143 148 152 157 159 159
359 357 355 354 352 350 348 346 346 345 344 341 340 338 337 338 335 330 326 322 322 324 321 313 308 302 292 285 283 281 302 327 294 303 340 303 220 210 211 205 203 198 200 198 191 191 197 208 206 204 207 218 222 221 227 219 218 208 205 225 192 186 216 184 195 240 239 230 255 266 273 204 151 147 143 146 155 151 153 146 142 145 149 152 155 158 162 162
357 356 354 353 351 348 347 346 345 344 342 340 340 337 336 336 335 334 327 323 321 322 324 315 310 301 288 282 277 262 235 238 193 134 37 16 142 188 194 191 185 180 189 194 193 196 207 215 213 208 206 220 222 218 230 223 221 220 217 215 169 179 207 179 194 219 217 217 223 241 258 201 150 144 152 156 163 161 158 149 146 151 153 155 157 159 163 164
355 354 353 351 349 348 346 345 345 344 341 339 339 336 335 335 334 334 328 325 320 320 324 317 312 297 289 275 269 250 230 248 233 180 106 115 104 164 185 191 191 188 193 197 198 202 212 217 216 213 205 215 228 226 232 228 223 217 230 229 185 191 195 181 197 208 215 218 226 247 257 187 142 146 165 160 156 154 151 149 149 152 155 157 157 161 165 165
354 354 352 351 348 347 345 344 345 343 341 339 338 336 335 334 333 333 328 324 319 319 320 318 313 294 289 266 263 255 245 255 218 181 186 130 78 147 186 190 197 201 203 205 201 200 212 220 216 214 209 212 222 229 238 237 225 212 225 245 234 217 187 182 199 204 225 227 231 254 252 171 165 168 164 147 147 145 142 146 150 152 155 158 160 164 166 166
354 353 352 351 348 347 345 344 345 343 341 340 339 336 334 333 332 331 327 322 319 316 315 317 310 290 282 260 245 257 259 268 152 189 225 252 244 233 200 192 197 202 205 207 203 201 212 224 219 214 217 219 218 229 240 243 222 204 212 221 235 235 191 184 198 200 221 234 238 253 230 186 167 163 149 131 136 139 141 146 151 154 157 161 163 167 168 169
354 353 353 351 348 346 344 345 345 343 342 341 341 337 333 332 330 329 325 321 317 313 313 312 305 286 275 253 209 241 267 32 42 226 209 218 224 218 212 210 206 202 204 204 202 204 214 223 218 217 228 230 224 230 237 242 239 220 215 213 218 231 207 189 197 204 210 227 235 240 239 197 159 167 150 129 134 139 143 148 153 157 160 163 165 169 171 171
354 354 353 352 349 346 344 345 345 344 343 342 342 338 334 332 329 327 323 319 313 310 310 304 298 277 268 238 207 231 242 111 36 253 211 212 217 221 219 218 216 207 205 203 201 203 211 221 218 218 227 233 238 244 243 245 255 250 234 221 214 221 221 200 196 201 199 217 229 226 244 216 171 178 157 138 141 147 149 151 157 159 162 167 169 170 172 174
354 353 353 352 349 346 345 345 344 344 343 343 343 340 336 330 328 326 323 320 313 310 306 299 289 267 263 235 224 233 243 194 107 160 208 226 230 232 224 218 220 212 207 205 204 203 209 222 225 225 223 224 240 256 259 251 256 263 258 246 219 212 213 209 206 204 199 201 220 220 235 235 198 180 151 141 145 154 155 154 158 161 164 169 171 171 174 176
354 353 352 351 349 347 345 344 345 344 343 345 345 343 337 329 325 325 324 321 313 310 303 292 284 267 247 239 244 258 274 227 196 194 202 214 227 231 219 213 217 222 214 207 204 206 215 225 231 236 235 232 232 236 256 255 250 257 260 261 239 219 202 203 215 221 217 196 204 213 215 226 234 192 151 139 144 154 154 156 160 163 165 169 171 172 177 178
353 352 352 350 348 347 345 344 345 344 344 345 347 346 338 328 322 324 327 320 313 308 297 283 281 266 227 251 268 278 277 243 226 217 196 200 216 217 210 202 208 219 216 208 206 212 221 229 236 241 243 244 252 253 257 259 251 256 264 254 230 235 228 206 204 214 226 203 199 213 227 214 234 202 155 142 147 154 154 159 162 164 167 170 172 173 179 182
353 351 352 351 348 346 345 344 345 344 345 347 349 347 338 333 330 330 328 316 311 306 291 272 268 260 241 270 286 292 270 241 229 209 185 196 212 206 204 198 202 210 211 210 212 219 222 227 234 238 242 245 255 263 265 272 258 250 255 250 214 212 264 240 205 197 203 198 194 206 241 218 241 208 157 144 148 155 155 156 163 166 167 170 172 173 179 184
353 352 352 352 349 347 345 345 346 345 347 350 352 349 340 343 342 334 328 319 319 314 283 266 283 275 265 282 292 288 246 233 219 198 185 194 208 205 202 198 201 204 209 213 215 222 225 226 228 230 236 239 245 248 257 272 259 229 214 231 227 204 230 257 233 204 196 196 188 195 230 222 252 201 147 142 147 153 152 155 166 167 166 170 171 174 179 183
354 352 351 352 349 348 347 346 347 346 350 355 357 354 345 349 350 343 352 358 350 337 288 242 342 284 263 266 277 274 258 241 226 206 197 193 198 210 206 199 200 201 208 214 217 223 226 226 222 221 228 230 227 222 231 239 235 239 209 214 240 220 209 220 251 229 195 197 187 187 212 227 252 170 137 141 148 151 149 157 167 165 169 173 171 174 179 181
353 352 350 351 349 349 348 346 348 349 354 0 1 356 346 351 356 2 26 10 354 348 327 208 143 268 267 261 271 285 273 252 244 220 207 202 200 209 214 206 196 196 207 213 215 219 222 223 215 205 216 217 220 213 215 217 213 236 219 198 231 237 229 208 229 238 193 196 191 181 197 231 255 165 140 148 151 148 148 157 170 173 173 173 169 173 178 182
352 351 349 350 349 349 349 347 350 353 356 4 4 359 353 353 355 19 27 357 338 328 305 243 207 234 289 283 276 283 286 275 255 222 208 210 208 210 220 215 194 192 202 208 206 208 212 216 211 209 208 207 216 217 221 220 210 232 233 205 206 224 244 227 228 236 192 186 191 177 180 214 243 186 149 153 150 147 154 165 177 177 170 167 167 171 177 182
351 350 348 350 348 348 350 347 351 357 355 358 358 358 2 358 356 7 334 320 299 284 275 269 258 257 275 278 274 279 285 281 256 217 203 204 204 210 221 214 194 192 200 203 196 200 206 219 219 216 210 204 212 221 229 232 226 237 244 226 206 207 232 239 239 243 199 175 186 179 174 201 221 200 161 152 146 147 159 171 174 167 164 165 167 171 176 181
350 349 348 349 347 347 352 349 351 360 356 353 353 359 8 3 356 325 321 311 294 281 269 268 265 259 264 266 264 273 287 291 278 231 204 199 198 204 217 210 193 194 201 198 194 195 204 225 225 216 212 208 209 216 225 234 236 239 249 253 226 208 220 228 238 245 212 180 185 181 179 198 209 205 168 146 142 150 162 169 168 165 166 167 169 171 176 181
349 348 347 349 346 345 352 350 349 358 358 356 357 1 5 356 340 321 318 307 293 287 272 266 263 255 256 259 255 262 277 280 276 262 212 194 197 198 204 205 197 197 194 195 199 191 202 228 224 211 209 216 215 211 215 226 235 238 244 260 257 240 232 222 234 245 215 179 180 181 184 196 201 206 176 151 152 162 166 171 174 171 168 169 171 170 174 179
348 347 346 348 346 343 350 350 348 356 353 356 1 358 353 344 335 328 319 300 292 290 270 254 249 243 246 249 245 247 252 250 260 262 222 192 195 200 201 202 197 197 192 196 205 194 206 224 216 208 209 213 221 217 212 218 229 238 236 242 253 257 259 231 228 239 227 185 172 179 185 196 196 203 190 166 167 169 168 172 176 175 173 174 174 173 175 177
346 345 344 347 345 342 349 349 349 359 353 358 1 347 343 339 337 336 322 295 283 289 279 258 243 237 238 239 238 234 229 231 244 251 221 193 193 201 205 204 195 201 200 198 207 214 224 213 189 207 216 209 217 221 217 213 215 230 235 235 240 244 252 256 235 230 231 207 179 172 183 209 196 195 202 179 173 173 171 169 170 174 177 177 177 177 179 179
345 344 342 345 345 340 346 352 352 358 359 3 351 334 336 338 335 337 325 297 268 285 298 276 234 238 242 237 236 227 219 228 234 239 223 196 193 198 206 208 199 205 204 198 206 220 230 211 184 201 215 212 213 216 218 216 207 219 228 234 241 243 247 258 259 240 229 222 192 172 178 231 206 193 201 196 185 178 173 170 169 172 174 175 176 179 181 182
344 344 340 343 346 340 344 358 356 355 356 348 340 333 333 334 335 335 325 296 274 278 316 51 196 257 264 231 223 215 215 234 230 232 230 206 197 197 206 208 201 208 203 199 210 219 223 220 204 201 206 212 215 214 215 215 217 216 213 224 239 251 252 256 267 257 214 227 203 180 175 230 213 197 196 200 205 181 169 173 173 171 172 174 178 180 182 184
344 342 339 343 348 344 343 351 355 356 349 335 334 332 328 332 339 335 320 251 276 275 70 88 136 5 347 217 196 196 212 201 217 228 230 218 201 200 210 210 201 207 198 196 216 210 199 212 222 212 204 208 214 216 209 208 223 223 196 206 224 243 253 256 268 267 240 262 229 193 175 172 208 207 194 192 206 181 166 173 175 173 176 178 180 181 182 185
343 341 339 342 351 356 345 340 348 351 344 334 331 329 328 335 336 330 319 271 309 357 19 11 15 3 347 295 183 197 234 149 170 225 224 220 203 197 210 216 210 206 199 208 214 196 191 205 221 220 210 207 208 212 206 206 222 229 208 207 210 224 242 253 263 268 272 291 268 215 178 172 218 219 199 187 200 187 167 176 179 176 179 181 181 181 183 186
342 340 339 342 353 3 354 343 341 340 340 335 328 328 332 332 326 316 226 280 314 6 355 357 12 355 343 336 186 207 244 184 175 213 209 217 210 201 213 216 219 219 209 225 227 199 198 203 212 224 223 212 202 205 205 209 217 222 228 228 214 213 222 238 249 263 289 283 258 239 198 194 222 212 195 185 201 200 173 177 181 179 180 181 181 181 183 185
342 339 337 341 352 359 4 0 343 340 342 335 329 331 329 322 314 275 211 280 331 0 353 360 2 344 339 345 219 217 234 234 265 211 196 211 209 205 213 210 222 240 218 230 235 231 229 206 204 220 232 220 201 196 200 211 213 210 225 236 239 225 209 219 234 250 279 269 249 249 245 246 248 217 195 186 193 194 182 172 174 178 180 180 180 179 180 183
343 339 336 342 354 354 353 350 348 349 343 334 331 331 321 308 300 185 269 324 340 352 352 354 350 342 338 340 322 267 233 237 268 246 193 202 203 203 205 201 217 240 232 229 226 232 241 225 207 209 220 225 215 200 196 204 208 209 215 218 242 260 221 209 205 217 239 250 256 261 268 270 256 237 212 195 187 188 194 175 166 175 181 181 180 177 179 182
343 338 337 338 345 347 341 344 352 349 337 333 329 324 315 304 188 216 306 334 333 351 355 343 338 337 328 325 320 301 280 226 239 263 229 195 200 199 200 202 194 203 232 234 211 217 230 236 238 213 210 216 223 207 193 197 199 206 208 190 208 235 219 214 194 204 228 238 254 263 273 270 246 247 219 202 197 191 201 185 166 172 178 178 178 178 179 182
344 340 342 334 327 336 340 346 353 345 336 330 320 310 300 310 337 321 348 356 330 329 344 340 330 326 324 319 315 317 315 287 225 248 248 212 209 203 201 210 200 196 223 229 210 213 216 228 237 232 208 203 217 215 184 194 190 196 204 182 187 200 196 207 204 207 223 226 229 239 261 256 244 268 210 197 236 215 204 189 170 170 174 174 176 178 179 182
345 341 336 331 327 333 342 351 349 339 330 324 315 304 284 269 10 10 4 2 326 328 340 344 330 322 322 307 312 356 348 328 328 293 257 223 215 213 199 205 215 217 216 221 228 221 217 219 221 229 213 182 206 224 192 181 183 195 203 185 190 199 187 190 194 192 191 213 213 213 232 221 204 237 184 190 244 247 232 199 170 169 173 173 174 176 179 183
344 341 324 333 344 342 345 351 343 330 322 318 310 300 298 287 13 14 357 341 330 333 336 338 332 323 322 318 342 13 8 332 342 338 292 245 222 220 199 196 212 223 217 214 228 222 227 233 206 217 229 187 194 218 208 183 186 194 197 201 203 190 167 174 186 171 140 147 217 208 226 221 209 236 182 183 218 239 253 228 167 167 172 172 174 178 180 183
342 337 326 336 342 335 339 341 338 331 320 311 297 323 327 317 343 346 345 347 336 332 331 332 336 323 322 340 353 358 354 341 346 348 327 316 275 223 209 194 197 212 226 228 233 232 229 234 196 197 222 219 196 201 209 200 185 172 193 210 189 162 185 206 187 156 143 208 225 212 235 241 247 264 233 195 199 212 238 241 174 168 172 171 174 180 181 181
339 340 345 358 1 1 336 325 327 328 312 296 285 317 298 302 337 337 343 351 334 327 330 328 337 336 330 338 342 343 344 343 348 351 336 327 320 299 270 219 180 202 229 239 244 247 248 243 213 193 209 222 207 197 208 212 201 174 190 195 143 151 211 216 195 178 178 211 213 205 223 216 206 235 234 220 217 207 215 228 203 172 172 172 173 176 178 179
339 342 341 339 17 10 329 319 311 308 299 282 277 292 278 310 335 338 348 348 332 328 331 318 331 342 335 330 329 339 341 338 346 345 331 329 343 2 1 345 353 348 303 283 268 245 260 262 227 208 203 210 207 197 204 215 216 206 172 163 157 191 204 188 201 198 183 209 221 210 217 213 199 199 200 213 222 216 209 214 212 181 169 175 176 174 175 178
344 343 330 338 21 4 340 334 312 297 288 270 287 311 319 329 340 351 347 331 327 338 329 319 331 333 330 327 323 337 347 338 338 337 331 341 324 334 3 14 346 345 341 327 302 245 255 261 239 224 200 190 195 197 198 205 214 215 177 162 182 204 181 173 201 199 175 200 217 218 218 218 217 196 190 203 213 212 203 200 204 186 166 172 174 174 176 177
352 339 302 345 14 0 342 333 304 285 265 265 306 339 334 337 355 351 327 312 329 6 325 322 329 322 319 321 318 335 350 334 334 331 309 323 323 321 359 17 349 336 335 327 314 278 258 237 252 252 205 184 188 200 199 191 196 210 197 176 184 188 162 174 203 205 195 204 204 219 237 239 239 203 187 195 201 200 193 182 191 184 167 168 170 172 177 178
354 327 287 336 5 354 337 329 302 281 235 260 307 344 340 334 337 329 320 328 345 335 311 318 318 314 312 316 326 341 336 325 327 322 303 320 332 332 351 356 347 336 333 329 331 335 305 236 250 264 233 201 195 194 192 188 190 203 207 187 180 182 174 179 204 207 200 228 223 208 251 253 256 235 186 187 190 192 187 175 179 175 165 169 172 174 177 179
349 310 296 343 3 354 339 325 298 306 316 321 339 349 344 330 317 317 335 344 340 318 315 314 308 316 317 318 333 334 325 322 315 312 327 334 327 324 337 341 342 339 333 326 327 333 330 282 249 252 252 246 219 192 180 183 189 198 213 209 181 181 183 177 193 194 186 226 242 244 277 261 278 286 187 178 179 176 169 168 179 175 167 171 176 175 175 180
337 310 310 347 2 355 345 314 301 329 338 328 338 343 336 323 311 325 344 340 335 336 329 316 318 327 325 328 332 325 324 327 318 326 340 333 322 323 328 334 341 341 333 330 335 336 334 314 259 263 258 265 249 199 173 176 187 197 211 216 201 192 186 174 179 174 172 206 216 234 272 256 296 320 125 143 151 148 151 169 186 178 167 172 176 173 173 180
324 311 314 342 356 350 344 323 321 334 325 328 344 344 329 316 314 331 340 329 325 333 321 316 331 333 326 327 323 321 337 344 329 339 342 322 315 323 325 332 339 336 325 332 337 329 321 310 314 308 250 248 254 199 172 176 186 198 202 207 220 207 181 175 186 169 178 203 187 181 253 248 284 331 39 77 123 139 151 175 187 176 164 170 174 172 173 179
324 313 316 334 342 341 346 354 347 336 336 347 353 337 324 320 324 326 321 318 332 350 342 324 327 324 315 316 314 319 346 3 336 332 337 317 312 317 322 328 330 320 314 325 330 323 298 275 293 299 232 230 237 198 185 181 183 200 199 197 215 219 192 177 178 167 190 207 189 176 220 248 287 352 43 60 94 123 141 164 174 170 163 168 174 175 176 176
328 326 331 337 339 338 350 358 357 357 350 346 341 328 325 320 318 319 315 332 9 7 342 324 322 319 307 310 317 320 342 4 339 313 319 321 316 314 318 320 317 312 318 329 334 330 286 255 268 250 239 254 258 274 253 185 174 189 200 195 202 216 213 179 163 186 185 182 199 195 176 198 268 7 73 82 103 125 123 110 110 120 145 162 174 179 180 176
330 327 336 343 339 336 349 356 357 354 327 321 327 323 321 317 316 323 322 334 9 3 332 321 319 317 314 323 328 325 340 352 321 307 318 321 316 312 315 316 311 314 325 334 336 332 299 281 289 264 262 265 264 280 279 214 180 182 194 203 196 202 216 206 175 185 165 143 208 213 156 156 217 234 192 157 150 154 135 103 98 99 118 152 172 179 184 184
348 329 327 337 337 332 341 336 334 328 313 318 327 309 312 320 325 331 326 324 332 347 359 324 308 314 320 327 328 321 332 334 304 315 328 318 324 326 322 321 319 332 345 336 332 336 301 300 330 321 302 288 277 286 291 274 212 178 190 210 205 193 207 215 192 171 159 148 207 203 157 159 201 209 196 197 185 161 133 121 113 106 106 136 166 175 180 184
341 323 320 332 329 308 306 305 309 316 318 322 317 307 323 332 327 324 320 315 316 333 352 315 306 320 322 324 328 319 325 331 314 330 328 311 324 335 327 321 322 350 1 336 325 335 313 315 340 333 312 297 294 300 301 293 285 213 194 209 216 202 198 209 214 184 162 166 194 176 156 168 183 173 188 200 159 130 127 120 109 108 108 113 141 161 163 162
329 327 319 324 313 300 302 304 310 318 321 321 321 338 343 332 324 321 312 310 313 328 338 317 310 317 318 324 329 316 322 331 315 313 311 311 325 325 318 313 307 329 342 333 324 328 322 328 334 331 320 304 307 309 302 296 285 297 250 204 219 216 194 199 217 210 163 170 192 161 146 172 178 160 169 138 114 113 115 111 104 112 115 112 120 133 132 131
308 311 318 318 306 302 308 310 314 313 311 322 333 345 341 324 320 320 312 311 315 320 323 311 309 313 312 318 319 313 320 318 297 288 286 286 294 289 282 286 295 313 324 322 322 323 322 327 328 334 338 316 329 317 290 299 309 290 269 219 217 247 201 191 205 219 180 170 181 147 137 196 193 141 107 88 95 95 91 92 93 94 93 96 112 130 135 133
301 299 312 317 299 298 305 303 308 305 302 322 323 318 320 315 316 320 321 317 316 318 314 306 310 317 312 315 321 319 319 307 292 287 278 273 275 267 257 266 275 283 297 308 314 311 316 323 327 339 332 310 329 319 284 298 328 289 255 217 84 332 269 198 193 212 199 163 168 165 182 205 157 117 103 95 89 81 78 76 76 76 73 73 80 101 132 143